sat.trackr.live / text

‹ back to catalog

STARLINK-11561 [DTC]

NORAD 62908 · 2025-027B

PAYLOAD ACTIVE UNKNOWN

§ Identity

Operator
Country
US
Launch date
2025-02-08
Launch site
AFETR
Launch vehicle
Mass (kg)
RCS (m²)

Purposes: comms

External: N2YO · Heavens-Above · Gunter

§ Orbital elements

Epoch: 2026-09-21T00:11:49.472736Z

Period
91.67 min
Inclination
42.9998°
Eccentricity
0.0001868
Mean motion
15.70889395 rev/d
Perigee alt
355.1 km
Apogee alt
357.6 km
Semi-major
6,734.5 km
B*
1.3626e-3
RAAN
250.0837°
Arg perigee
252.4047°
Mean anomaly
107.6616°
Rev number
9,387

§ Raw data

STARLINK-11561 [DTC]1 62908U 25027B   26264.00821149  .00178575  00000+0  13626-2 0  99982 62908  42.9998 250.0837 0001868 252.4047 107.6616 15.70889395 93879

JSON: /api/v1/satellites/62908 · /tle

For live sub-satellite position, see the globe view (requires WebGL).

§ Visibility from observer

Set your observer location to see the next 7 days of passes ≥ 10°. The values pass through the URL so the page stays shareable.

No JS? Fill the form by hand. The geolocation button needs JavaScript.